Starlink 33558

operational
NORAD ID: 63643 Int'l Des: 2025-083 Owner: SPXS Country: US Constellation: starlink
LEOCIRCULAR

About Starlink 33558

Description loading...

Live Position

Loading 3D Globe...

Upcoming Passes

Altitude History

Altitude vs Time

uPlot chart will show altitude changes over time

Two-Line Element Set

1 63643U 25083K 26034.51690338 .00026968 00000-0 98580-3 0 9994
2 63643 42.9970 197.9329 0001109 205.7261 154.3535 15.27584384 44842
Epoch: Feb 3, 2026 • Age: 9 hours

Current Status

Altitude 483.7 km
Velocity 7.62 km/s
Sub-Earth Point -2.39°S, 92°E
Launch Date Apr 25, 2025
Age 0.7 years
Type internet

Technical Details

Classification Payload
Mass 575.00 kg
Dry Mass 530.00 kg
Total Mass 575.00 kg
Length 0.30 m
Diameter 4.10 m
Span 29.00 m
Shape Box + pan
Manufacturer SPXS
Bus Type Starlink V2MO
Phase Status In Orbit
Owner/State SPXS/US

Large Constellations

Loading constellations...